Find Lemur-2-Vukasin

NORAD ID: 66785 Int'l Des: 2025-276 Owner: SPIRE/LACU Country: US Constellation: spire operational
LEOCIRCULARRETROGRADESSO

リアルタイム位置

3D地球を読み込み中...

Lemur-2-Vukasinについて

説明を読み込み中...

次回通過

Passes for default location (London). Set your location on the main map for personalized predictions.

高度履歴

Loading altitude history...

軌道要素

1 66785U 25276EA 26124.73747838 .00007404 00000-0 60231-3 0 9996
2 66785 97.5238 197.0801 0005336 269.8432 90.2181 14.99824099 23635
Epoch: May 4, 2026 • Age: 7 hours

現在のステータス

高度 583.5 km
速度 7.57 km/s
衛星直下点 72.53°N, 56.72°W
打ち上げ日 Nov 28, 2025
運用期間 0.4 years
タイプ other

技術仕様

分類 Payload
質量 5.00 kg
乾燥質量 5.00 kg
総質量 5.00 kg
長さ 0.40 m
直径 0.10 m
スパン 0.40 m
形状 Box
製造者 SPIREG
バスタイプ Cubesat 4U
フェーズステータス In Orbit
所有者/国 SPIRE/LACU/US

Most Searched